Location: Cussy
(47.0410°N, 4.6412°E)
Time: 23:01:35
(UTC+00:00)

deb Agena D - Visible Passes

Search period start: 24 June 2021 00:00
Search period end: 04 July 2021 00:00
Orbit: 1017 x 1028 km, 100.1° (Epoch: 24 June)

Date Brightness Start Highest point End Pass type
(mag) Time Alt. Az. Time Alt. Az. Time Alt. Az.
24 Jun ? 02:22:22 10° SE 02:28:18 44° ENE 02:34:15 10° N visible
25 Jun ? 01:19:39 10° E 01:23:36 18° NE 01:27:34 10° NNE visible
25 Jun ? 03:00:24 10° SSE 03:06:44 79° ENE 03:13:05 10° NNW visible
26 Jun ? 01:56:19 10° ESE 02:01:40 30° ENE 02:07:01 10° N visible
27 Jun ? 00:55:05 10° ENE 00:57:14 12° NE 00:59:22 10° NNE visible
27 Jun ? 02:33:50 10° SE 02:39:56 52° ENE 02:46:03 10° N visible
28 Jun ? 01:30:41 10° E 01:35:08 21° NE 01:39:35 10° N visible
29 Jun ? 02:07:38 10° ESE 02:13:15 35° ENE 02:18:53 10° N visible
30 Jun ? 01:05:41 10° ENE 01:08:42 14° NE 01:11:44 10° NNE visible
30 Jun ? 02:45:22 10° SE 02:51:35 62° ENE 02:57:49 10° N visible
01 Jul ? 01:41:49 10° ESE 01:46:40 24° NE 01:51:31 10° N visible
02 Jul ? 02:19:01 10° SE 02:24:51 41° ENE 02:30:42 10° N visible
03 Jul ? 01:16:31 10° E 01:20:12 16° NE 01:23:53 10° NNE visible
03 Jul ? 02:56:57 10° SSE 03:03:16 73° ENE 03:09:34 10° NNW visible
